Mercury, NV

2:47 AM PDT on April 19, 2018 (GMT -0700)
Mercury

Weather History for KDRA - October, 2011

Change the Weather History Date:

Friday, October 28, 2011

  Actual Average Record
Temperature  
Mean Temperature 58 °F 58 °F  
Max Temperature 72 °F 72 °F 90 °F (2003)
Min Temperature 45 °F 45 °F 29 °F (2009)
Degree Days  
Heating Degree Days 7    
Cooling Degree Days 0    
Growing Degree Days 8 (Base 50)    
Moisture  
Dew Point 1 °F    
Average Humidity 11    
Maximum Humidity 22    
Minimum Humidity 6    
Precipitation  
Precipitation 0.00 in 0.01 in 0.09 in (2016)
Month to date precipitation 0.33  
Year to date precipitation 4.90  
Sea Level Pressure  
Sea Level Pressure 30.10 in    
Wind  
Wind Speed 5 mph (East)    
Max Wind Speed 15 mph    
Max Gust Speed -    
Visibility 10 miles    
Events      
T = Trace of Precipitation, MM = Missing Value Source: NWS Daily Summary

Daily Weather History Graph

Daily Weather History Graph

Search for Another Location

Airport or City:

Trip Planner

Search our weather history database for the weather conditions in past years. The results will help you decide how hot, cold, wet, or windy it might be!

Date:

Astronomy

Oct. 28, 2011 Rise Set
Actual Time 7:03 AM PDT 5:51 PM PDT
Civil Twilight 6:36 AM PDT 6:18 PM PDT
Nautical Twilight 6:06 AM PDT 6:48 PM PDT
Astronomical Twilight 5:36 AM PDT 7:18 PM PDT
Moon 9:19 AM PDT (10/28) 7:23 PM PDT (10/28)
Length of Visible Light 11h 41m
Length of Day
10h 48m
Waxing Crescent, 6% of the Moon is Illuminated
Oct 28
Waxing Crescent
Nov 2
First Quarter
Nov 10
Full
Nov 18
Last Quarter
Nov 24
New

Hourly Weather History & Observations

Time (PDT) Temp. Windchill Dew Point Humidity Pressure Visibility Wind Dir Wind Speed Gust Speed Precip Events Conditions
12:53 AM 45.0 °F 43.5 °F -5.1 °F 12% 30.09 in 10.0 mi NE 3.5 mph - N/A   Clear
1:53 AM 50.0 °F - -6.0 °F 10% 30.09 in 10.0 mi Calm Calm - N/A   Clear
2:53 AM 48.0 °F - -5.1 °F 11% 30.08 in 10.0 mi North 6.9 mph - N/A   Clear
3:53 AM 46.9 °F - -4.0 °F 12% 30.09 in 10.0 mi Calm Calm - N/A   Clear
4:53 AM 48.9 °F - -4.0 °F 11% 30.09 in 10.0 mi Calm Calm - N/A   Clear
5:53 AM 51.1 °F - -2.0 °F 11% 30.10 in 10.0 mi NNE 15.0 mph - N/A   Clear
6:53 AM 46.9 °F - -0.9 °F 14% 30.13 in 10.0 mi ESE 6.9 mph - N/A   Clear
7:53 AM 48.9 °F - -0.0 °F 13% 30.15 in 10.0 mi East 4.6 mph - N/A   Clear
8:53 AM 57.9 °F - -0.0 °F 10% 30.16 in 10.0 mi NNE 5.8 mph - N/A   Clear
9:53 AM 61.0 °F - -2.0 °F 8% 30.16 in 10.0 mi ESE 9.2 mph - N/A   Clear
10:53 AM 64.0 °F - -2.9 °F 7% 30.15 in 10.0 mi ESE 10.4 mph - N/A   Clear
11:53 AM 66.9 °F - -2.9 °F 6% 30.12 in 10.0 mi ESE 12.7 mph - N/A   Clear
12:53 PM 69.1 °F - -2.0 °F 6% 30.10 in 10.0 mi SE 13.8 mph - N/A   Clear
1:53 PM 70.0 °F - -0.9 °F 6% 30.07 in 10.0 mi SSE 8.1 mph - N/A   Clear
2:53 PM 71.1 °F - -0.9 °F 6% 30.06 in 10.0 mi Variable 5.8 mph - N/A   Clear
3:53 PM 71.1 °F - -0.0 °F 6% 30.05 in 10.0 mi Calm Calm - N/A   Clear
4:53 PM 71.1 °F - 1.9 °F 7% 30.04 in 10.0 mi SE 5.8 mph - N/A   Clear
5:53 PM 64.9 °F - 6.1 °F 10% 30.05 in 10.0 mi SE 5.8 mph - N/A   Clear
6:53 PM 57.0 °F - 7.0 °F 14% 30.08 in 10.0 mi East 3.5 mph - N/A   Clear
7:53 PM 55.9 °F - 7.0 °F 14% 30.09 in 10.0 mi East 9.2 mph - N/A   Clear
8:53 PM 54.0 °F - 7.0 °F 15% 30.09 in 10.0 mi ENE 4.6 mph - N/A   Clear
9:53 PM 50.0 °F - 8.1 °F 18% 30.09 in 10.0 mi Calm Calm - N/A   Clear
10:53 PM 48.9 °F - 8.1 °F 19% 30.10 in 10.0 mi ESE 3.5 mph - N/A   Clear
11:53 PM 45.0 °F 42.6 °F 8.1 °F 22% 30.10 in 10.0 mi SE 4.6 mph - N/A   Clear